Pagina principale
METAR-TAF:

METAR-TAF

Aeroporti :

Passo di Resia, Italia

latitudine: 46-50N, longitudine: 010-30E, altezza: 1800 m

Osservazione

Il bollettino è stato emesso 2 ore e 6 minuti fa, alle 22:55 UTC
Vento 4 kt da sud/sud-est
Temperature 10°C
Umidità 100%
Pressione 1019 hPa
Visibilità 10 km o più
Nuvoloso ad un'altezza di 2000 ft

METAR: LIVE 272255Z 16004KT 9999 BKN020 10/10 Q1019 RMK BKN VIS MIN 9999

Ora: 03:01 (01:01 UTC)


TAF: mancante

Osservazioni e previsioni meteorologiche di più di 4000 aeroporti (messaggi METAR e TAF).

Le stazioni disponibili sono rappresentate dai dischi gialli e rossi sulla carta.

Puntare il mouse per vedere il nome della stazione.

Clicca sopra per visualizzare le osservazioni e previsioni meteorologiche.

Per cambiare la mappa : fare clic sui pulsanti verdi con una croce nera per ingrandire, il pulsante verde con un trattino per diminuire, o sulla freccia verde per le mappe adiacenti.


METAR-TAF: